Location: Austin
(30.3000°N, 97.7500°W)
Time: 06:00:36
(UTC-06:00)

NOSS 2-2 (E) - Pass Details

Date: 03 March 2026
Orbit: 383 x 1720 km, 63.3° (Epoch: 6 March)

Event Time Altitude Azimuth Distance (km) Brightness Sun altitude
Rises 19:44:01 0° 201° (SSW) 3,150 7.4 -16.5°
Reaches altitude 10° 19:46:44 10° 198° (SSW) 2,025 6.4 -17.1°
Maximum altitude 19:51:04 59° 118° (ESE) 596 3.1 -18.0°
Enters shadow 19:51:55 44° 66° (ENE) 686 3.4 -18.2°
